| time (UTC) | temp F | wind direction | speed MPH | gust MPH | rain 1hr in | rain 24hr in | rain mn in | humidity % | barometer mb |
| 20260902083035 | 76 | 248 | 0.0 | 0.0 | 0.00 | 0.00 | 0.00 | 85 | 1014.8 |
| 20260902081532 | 76 | 248 | 0.0 | 0.0 | 0.00 | 0.00 | 0.00 | 84 | 1014.7 |
| 20260902080034 | 77 | 248 | 0.0 | 0.0 | 0.00 | 0.00 | 0.00 | 84 | 1014.5 |
| 20260902074530 | 77 | 249 | 0.0 | 0.0 | 0.00 | 0.00 | 0.00 | 83 | 1014.5 |
| 20260902073027 | 77 | 248 | 0.0 | 0.0 | 0.00 | 0.00 | 0.00 | 82 | 1014.5 |
| 20260902071526 | 78 | 248 | 0.0 | 0.0 | 0.00 | 0.00 | 0.00 | 82 | 1014.5 |
| 20260902070024 | 78 | 249 | 0.0 | 0.0 | 0.00 | 0.00 | 0.00 | 82 | 1014.6 |
| 20260902064526 | 78 | 248 | 0.0 | 0.0 | 0.00 | 0.00 | 0.00 | 81 | 1014.4 |
| 20260902063036 | 78 | 249 | 0.0 | 0.0 | 0.00 | 0.00 | 0.00 | 80 | 1014.6 |
| 20260902061520 | 79 | 249 | 0.0 | 0.0 | 0.00 | 0.00 | 0.00 | 79 | 1014.6 |
| 20260902060016 | 79 | 249 | 0.0 | 0.0 | 0.00 | 0.00 | 0.00 | 78 | 1014.6 |
| 20260902054518 | 80 | 249 | 0.0 | 0.0 | 0.00 | 0.00 | 0.00 | 77 | 1014.6 |
| 20260902053015 | 80 | 174 | 0.0 | 0.0 | 0.00 | 0.00 | 0.00 | 77 | 1014.7 |
| 20260902051518 | 80 | 174 | 0.0 | 0.0 | 0.00 | 0.00 | 0.00 | 77 | 1014.7 |
| 20260902050015 | 80 | 174 | 0.0 | 0.0 | 0.00 | 0.00 | 0.00 | 77 | 1014.7 |
| 20260902044515 | 80 | 174 | 0.0 | 0.0 | 0.00 | 0.00 | 0.00 | 76 | 1014.6 |
| 20260902043010 | 81 | 174 | 0.0 | 0.0 | 0.00 | 0.00 | 0.00 | 76 | 1014.7 |
| 20260902041507 | 81 | 174 | 0.0 | 0.0 | 0.00 | 0.00 | 0.00 | 75 | 1014.7 |
| 20260902040009 | 81 | 174 | 0.0 | 0.0 | 0.00 | 0.00 | 0.00 | 74 | 1014.7 |
| 20260902034504 | 82 | 174 | 0.0 | 0.0 | 0.00 | 0.00 | 0.00 | 74 | 1014.7 |
| 20260902033006 | 82 | 138 | 0.0 | 0.0 | 0.00 | 0.00 | 0.00 | 73 | 1014.7 |
| 20260902031504 | 82 | 138 | 0.0 | 0.0 | 0.00 | 0.00 | 0.00 | 73 | 1014.7 |
| 20260902030100 | 83 | 155 | 0.0 | 0.0 | 0.00 | 0.00 | 0.00 | 73 | 1014.6 |
| 20260902024600 | 83 | 167 | 0.0 | 0.0 | 0.00 | 0.00 | 0.00 | 73 | 1014.7 |
| 20260902023102 | 83 | 158 | 0.0 | 0.0 | 0.00 | 0.00 | 0.00 | 72 | 1014.8 |
| 20260902021601 | 84 | 158 | 0.0 | 0.0 | 0.00 | 0.00 | 0.00 | 72 | 1014.8 |
| 20260902020057 | 84 | 158 | 0.0 | 0.0 | 0.00 | 0.00 | 0.00 | 70 | 1014.7 |
| 20260902014558 | 85 | 158 | 0.0 | 0.0 | 0.00 | 0.00 | 0.00 | 69 | 1014.6 |
| 20260902013058 | 85 | 158 | 0.0 | 0.0 | 0.00 | 0.00 | 0.00 | 68 | 1014.5 |
| 20260902011502 | 86 | 175 | 0.0 | 0.0 | 0.00 | 0.00 | 0.00 | 66 | 1014.4 |
| 20260902010101 | 86 | 164 | 0.0 | 0.0 | 0.00 | 0.00 | 0.00 | 65 | 1014.2 |
| 20260902004602 | 87 | 233 | 0.0 | 0.0 | 0.00 | 0.00 | 0.00 | 63 | 1014.1 |
| 20260902003133 | 88 | 169 | 0.0 | 0.0 | 0.00 | 0.00 | 0.00 | 62 | 1014.2 |
| 20260902001600 | 89 | 150 | 0.0 | 0.0 | 0.00 | 0.00 | 0.00 | 60 | 1014.2 |
| 20260902000101 | 89 | 173 | 0.0 | 0.0 | 0.00 | 0.00 | 0.00 | 59 | 1014.3 |
| 20260901234558 | 90 | 214 | 0.0 | 0.0 | 0.00 | 0.00 | 0.00 | 59 | 1014.3 |
| 20260901233057 | 91 | 143 | 0.0 | 3.0 | 0.00 | 0.00 | 0.00 | 58 | 1014.4 |
| 20260901231602 | 92 | 233 | 0.0 | 5.0 | 0.00 | 0.00 | 0.00 | 57 | 1014.4 |
| 20260901230056 | 92 | 191 | 0.0 | 6.0 | 0.00 | 0.00 | 0.00 | 56 | 1014.3 |
| 20260901224555 | 93 | 179 | 0.0 | 6.0 | 0.00 | 0.00 | 0.00 | 56 | 1014.3 |
| 20260901223054 | 93 | 212 | 3.0 | 8.0 | 0.00 | 0.00 | 0.00 | 55 | 1014.2 |
| 20260901221556 | 94 | 251 | 0.0 | 6.0 | 0.00 | 0.00 | 0.00 | 53 | 1014.1 |
| 20260901220052 | 95 | 124 | 1.0 | 7.0 | 0.00 | 0.00 | 0.00 | 51 | 1014.1 |
| 20260901214552 | 96 | 120 | 0.0 | 2.0 | 0.00 | 0.00 | 0.00 | 50 | 1014.1 |
| 20260901213051 | 97 | 144 | 0.0 | 7.0 | 0.00 | 0.00 | 0.00 | 49 | 1014.1 |
| 20260901211549 | 97 | 169 | 4.0 | 8.0 | 0.00 | 0.00 | 0.00 | 48 | 1014.2 |
| 20260901204545 | 97 | 140 | 0.0 | 6.0 | 0.00 | 0.00 | 0.00 | 47 | 1014.4 |
| 20260901203045 | 96 | 319 | 2.0 | 10.0 | 0.00 | 0.00 | 0.00 | 49 | 1014.5 |
| 20260901201543 | 97 | 168 | 0.0 | 8.0 | 0.00 | 0.00 | 0.00 | 49 | 1014.6 |
| 20260901200040 | 96 | 196 | 0.0 | 5.0 | 0.00 | 0.00 | 0.00 | 49 | 1014.6 |
| 20260901194541 | 95 | 4 | 0.0 | 4.0 | 0.00 | 0.00 | 0.00 | 50 | 1014.7 |
| 20260901193041 | 95 | 229 | 2.0 | 8.0 | 0.00 | 0.00 | 0.00 | 49 | 1014.9 |
| 20260901191540 | 96 | 169 | 4.0 | 9.0 | 0.00 | 0.00 | 0.00 | 50 | 1015.0 |
| 20260901190049 | 96 | 236 | 0.0 | 7.0 | 0.00 | 0.00 | 0.00 | 49 | 1015.2 |
| 20260901184535 | 96 | 223 | 0.0 | 8.0 | 0.00 | 0.00 | 0.00 | 50 | 1015.5 |
| 20260901183032 | 96 | 221 | 1.0 | 4.0 | 0.00 | 0.00 | 0.00 | 50 | 1015.5 |
| 20260901181536 | 96 | 249 | 0.0 | 4.0 | 0.00 | 0.00 | 0.00 | 49 | 1015.6 |
| 20260901180032 | 94 | 241 | 0.0 | 4.0 | 0.00 | 0.00 | 0.00 | 53 | 1015.7 |
| 20260901174532 | 95 | 207 | 1.0 | 8.0 | 0.00 | 0.00 | 0.00 | 52 | 1015.8 |
| 20260901173032 | 94 | 167 | 0.0 | 6.0 | 0.00 | 0.00 | 0.00 | 54 | 1015.9 |
| 20260901171526 | 94 | 288 | 0.0 | 6.0 | 0.00 | 0.00 | 0.00 | 53 | 1016.0 |
| 20260901170024 | 93 | 247 | 2.0 | 9.0 | 0.00 | 0.00 | 0.00 | 55 | 1016.0 |
| 20260901164521 | 93 | 224 | 0.0 | 9.0 | 0.00 | 0.00 | 0.00 | 56 | 1016.2 |
| 20260901163035 | 92 | 243 | 1.0 | 8.0 | 0.00 | 0.00 | 0.00 | 55 | 1016.3 |
| 20260901161522 | 92 | 271 | 2.0 | 9.0 | 0.00 | 0.00 | 0.00 | 57 | 1016.4 |
| 20260901160014 | 91 | 265 | 0.0 | 11.0 | 0.00 | 0.00 | 0.00 | 59 | 1016.4 |
| 20260901154527 | 90 | 224 | 0.0 | 4.0 | 0.00 | 0.00 | 0.00 | 60 | 1016.5 |
| 20260901153017 | 89 | 238 | 1.0 | 11.0 | 0.00 | 0.00 | 0.00 | 62 | 1016.6 |
| 20260901151509 | 89 | 250 | 0.0 | 9.0 | 0.00 | 0.00 | 0.00 | 63 | 1016.7 |
| 20260901150006 | 88 | 226 | 2.0 | 9.0 | 0.00 | 0.00 | 0.00 | 62 | 1016.7 |
| 20260901144505 | 87 | 223 | 0.0 | 8.0 | 0.00 | 0.00 | 0.00 | 67 | 1016.7 |
| 20260901143059 | 86 | 266 | 0.0 | 3.0 | 0.00 | 0.00 | 0.00 | 69 | 1016.8 |
| 20260901141558 | 85 | 193 | 2.0 | 8.0 | 0.00 | 0.00 | 0.00 | 68 | 1016.9 |
| 20260901134602 | 85 | 228 | 0.0 | 4.0 | 0.00 | 0.00 | 0.00 | 69 | 1016.6 |
| 20260901133103 | 84 | 250 | 0.0 | 0.0 | 0.00 | 0.00 | 0.00 | 71 | 1016.6 |
| 20260901131552 | 83 | 206 | 0.0 | 0.0 | 0.00 | 0.00 | 0.00 | 74 | 1016.6 |
| 20260901130045 | 81 | 231 | 0.0 | 0.0 | 0.00 | 0.00 | 0.00 | 77 | 1016.9 |
| 20260901124542 | 78 | 117 | 0.0 | 0.0 | 0.00 | 0.00 | 0.00 | 83 | 1017.0 |
| 20260901123042 | 76 | 117 | 0.0 | 0.0 | 0.00 | 0.00 | 0.00 | 86 | 1016.9 |
| 20260901121549 | 75 | 231 | 0.0 | 0.0 | 0.00 | 0.00 | 0.00 | 88 | 1017.0 |
| 20260901120040 | 74 | 231 | 0.0 | 0.0 | 0.00 | 0.00 | 0.00 | 90 | 1016.8 |
| 20260901114538 | 73 | 175 | 0.0 | 0.0 | 0.00 | 0.00 | 0.00 | 91 | 1016.5 |
| 20260901113037 | 72 | 175 | 0.0 | 0.0 | 0.00 | 0.00 | 0.00 | 91 | 1016.4 |
| 20260901111533 | 73 | 175 | 0.0 | 0.0 | 0.00 | 0.00 | 0.00 | 90 | 1016.1 |
| 20260901110031 | 73 | 175 | 0.0 | 0.0 | 0.00 | 0.00 | 0.00 | 90 | 1016.0 |
| 20260901104537 | 73 | 175 | 0.0 | 0.0 | 0.00 | 0.00 | 0.00 | 89 | 1015.9 |
| 20260901103031 | 74 | 176 | 0.0 | 0.0 | 0.00 | 0.00 | 0.00 | 88 | 1015.7 |
| 20260901101524 | 74 | 176 | 0.0 | 0.0 | 0.00 | 0.00 | 0.00 | 87 | 1015.6 |
| 20260901100021 | 74 | 176 | 0.0 | 0.0 | 0.00 | 0.00 | 0.00 | 87 | 1015.6 |
| 20260901094523 | 75 | 176 | 0.0 | 0.0 | 0.00 | 0.00 | 0.00 | 86 | 1015.5 |
| 20260901093018 | 75 | 209 | 0.0 | 0.0 | 0.00 | 0.00 | 0.00 | 85 | 1015.3 |
| 20260901091515 | 76 | 209 | 0.0 | 0.0 | 0.00 | 0.00 | 0.00 | 83 | 1015.3 |
| 20260901090014 | 77 | 209 | 0.0 | 0.0 | 0.00 | 0.00 | 0.00 | 82 | 1015.2 |
| 20260901084511 | 77 | 230 | 0.0 | 0.0 | 0.00 | 0.00 | 0.00 | 80 | 1015.1 |